• In Hungary
  • List of Countries
  • For 7 days
  • Water Temperature
  • Satellite Maps
  • Weather Map
  • News
  • Weather Widgets
  • user-avatar
    Login

    Hourly Weather Ostrowo

    Today, 12 December, Tuesday

    Time Temperature Precipitation Wind Pressure Humidity
    00:00 +2°C° 0.6 mm 8 mps 740 mmHg 93%
    01:00 +4°C° 0 mm 8 mps 740 mmHg 94%
    02:00 +4°C° 0.5 mm 7 mps 739 mmHg 94%
    03:00 +4°C° 0.5 mm 7 mps 739 mmHg 95%
    04:00 +4°C° 0.5 mm 7 mps 739 mmHg 95%
    05:00 +4°C° 0.6 mm 7 mps 739 mmHg 94%
    06:00 +4°C° 0.6 mm 7 mps 740 mmHg 94%
    07:00 +4°C° 0 mm 6 mps 740 mmHg 93%
    08:00 +4°C° 0.2 mm 7 mps 740 mmHg 90%
    09:00 +5°C° 0.2 mm 8 mps 741 mmHg 86%
    10:00 +5°C° 0.2 mm 9 mps 741 mmHg 83%
    11:00 +5°C° 0 mm 9 mps 742 mmHg 80%
    12:00 +5°C° 0 mm 10 mps 742 mmHg 77%
    13:00 +5°C° 0 mm 10 mps 742 mmHg 74%
    14:00 +4°C° 0.1 mm 11 mps 743 mmHg 75%
    15:00 +3°C° 0.1 mm 11 mps 744 mmHg 75%
    16:00 +2°C° 0.1 mm 12 mps 744 mmHg 75%
    17:00 +2°C° 0.2 mm 12 mps 745 mmHg 75%
    18:00 +2°C° 0.2 mm 12 mps 746 mmHg 75%
    19:00 0°C° 0.2 mm 12 mps 747 mmHg 75%
    20:00 0°C° 0.5 mm 12 mps 748 mmHg 75%
    21:00 0°C° 0.5 mm 12 mps 749 mmHg 76%
    22:00 -1°C° 0.5 mm 12 mps 750 mmHg 77%
    23:00 -1°C° 0.1 mm 11 mps 751 mmHg 76%

    Tomorrow, 13 December, Wednesday

    Time Temperature Precipitation Wind Pressure Humidity
    00:00 -1°C° 0.1 mm 11 mps 752 mmHg 74%
    01:00 -2°C° 0.1 mm 11 mps 753 mmHg 73%
    02:00 0°C° 0.1 mm 10 mps 754 mmHg 76%
    03:00 0°C° 0.1 mm 10 mps 755 mmHg 78%
    04:00 0°C° 0.1 mm 10 mps 756 mmHg 81%
    05:00 -2°C° 0.1 mm 10 mps 756 mmHg 83%
    06:00 -2°C° 0.1 mm 10 mps 756 mmHg 84%
    07:00 -3°C° 0.1 mm 10 mps 757 mmHg 86%
    08:00 -3°C° 0 mm 10 mps 757 mmHg 85%
    09:00 -3°C° 0 mm 9 mps 757 mmHg 84%
    10:00 -3°C° 0 mm 9 mps 758 mmHg 83%
    11:00 -1°C° 0 mm 9 mps 757 mmHg 82%
    12:00 -1°C° 0 mm 9 mps 757 mmHg 80%
    13:00 -1°C° 0 mm 9 mps 756 mmHg 79%
    14:00 -1°C° 0 mm 9 mps 756 mmHg 79%
    15:00 -1°C° 0 mm 9 mps 755 mmHg 79%
    16:00 -3°C° 0 mm 10 mps 755 mmHg 79%
    17:00 -3°C° 0 mm 10 mps 754 mmHg 78%
    18:00 -3°C° 0 mm 10 mps 754 mmHg 76%
    19:00 -3°C° 0 mm 11 mps 753 mmHg 74%
    20:00 -3°C° 0 mm 11 mps 752 mmHg 73%
    21:00 -3°C° 0 mm 11 mps 751 mmHg 72%
    22:00 -3°C° 0 mm 12 mps 750 mmHg 70%
    23:00 -3°C° 0 mm 12 mps 749 mmHg 70%

    Day after tomorrow, 14 December, Thursday

    Time Temperature Precipitation Wind Pressure Humidity
    00:00 -3°C° 0 mm 12 mps 748 mmHg 69%
    01:00 -2°C° 0 mm 12 mps 747 mmHg 68%
    02:00 -2°C° 0.1 mm 12 mps 746 mmHg 70%
    03:00 -2°C° 0.1 mm 12 mps 745 mmHg 72%
    04:00 -2°C° 0.1 mm 12 mps 744 mmHg 73%
    05:00 -2°C° 0.2 mm 12 mps 743 mmHg 76%
    06:00 -2°C° 0.2 mm 13 mps 742 mmHg 78%
    07:00 -1°C° 0.2 mm 13 mps 741 mmHg 80%
    08:00 -1°C° 0.3 mm 12 mps 741 mmHg 81%
    09:00 -1°C° 0.3 mm 11 mps 741 mmHg 82%
    10:00 +1°C° 0.3 mm 10 mps 740 mmHg 83%
    11:00 +1°C° 0 mm 9 mps 740 mmHg 81%
    12:00 +1°C° 0 mm 8 mps 740 mmHg 79%
    13:00 +2°C° 0 mm 7 mps 740 mmHg 77%
    14:00 0°C° 0.4 mm 7 mps 740 mmHg 80%
    15:00 0°C° 0.4 mm 7 mps 740 mmHg 83%
    16:00 0°C° 0.4 mm 7 mps 741 mmHg 85%
    17:00 0°C° 0.3 mm 9 mps 741 mmHg 83%
    18:00 0°C° 0.3 mm 10 mps 741 mmHg 80%
    19:00 -2°C° 0.3 mm 11 mps 741 mmHg 78%
    20:00 -2°C° 0 mm 11 mps 741 mmHg 78%
    21:00 -2°C° 0 mm 11 mps 742 mmHg 78%
    22:00 -2°C° 0 mm 10 mps 742 mmHg 79%
    23:00 -2°C° 0 mm 10 mps 742 mmHg 79%

    15 December, Friday

    Time Temperature Precipitation Wind Pressure Humidity
    00:00 -3°C° 0 mm 10 mps 742 mmHg 79%
    01:00 -3°C° 0 mm 10 mps 741 mmHg 80%
    02:00 -3°C° 0 mm 10 mps 741 mmHg 79%
    03:00 -3°C° 0 mm 9 mps 741 mmHg 78%
    04:00 -2°C° 0 mm 8 mps 741 mmHg 77%
    05:00 -2°C° 0 mm 7 mps 740 mmHg 80%
    06:00 -2°C° 0 mm 6 mps 740 mmHg 83%
    07:00 -1°C° 0 mm 5 mps 740 mmHg 86%
    08:00 -1°C° 0 mm 5 mps 740 mmHg 87%
    09:00 -1°C° 0 mm 4 mps 740 mmHg 88%
    10:00 -1°C° 0 mm 4 mps 740 mmHg 88%
    11:00 0°C° 0 mm 5 mps 740 mmHg 87%
    12:00 -1°C° 0 mm 6 mps 741 mmHg 87%
    13:00 0°C° 0 mm 7 mps 741 mmHg 86%
    14:00 0°C° 0.1 mm 8 mps 742 mmHg 85%
    15:00 -1°C° 0.1 mm 9 mps 742 mmHg 85%
    16:00 -2°C° 0.1 mm 10 mps 743 mmHg 84%
    17:00 -2°C° 0.2 mm 10 mps 743 mmHg 84%
    18:00 -2°C° 0.2 mm 11 mps 744 mmHg 84%
    19:00 -2°C° 0.2 mm 11 mps 744 mmHg 83%
    20:00 -2°C° 0.2 mm 11 mps 744 mmHg 83%
    21:00 -2°C° 0.2 mm 11 mps 745 mmHg 83%
    22:00 -2°C° 0.2 mm 11 mps 745 mmHg 82%
    23:00 -3°C° 0.1 mm 10 mps 746 mmHg 83%

    16 December, Saturday

    Time Temperature Precipitation Wind Pressure Humidity
    00:00 -3°C° 0.1 mm 10 mps 746 mmHg 83%
    01:00 -3°C° 0.1 mm 10 mps 746 mmHg 83%
    02:00 -3°C° 0 mm 10 mps 746 mmHg 85%
    03:00 -3°C° 0 mm 9 mps 746 mmHg 86%
    04:00 -4°C° 0 mm 9 mps 746 mmHg 88%
    05:00 -4°C° 0 mm 9 mps 747 mmHg 88%
    06:00 -4°C° 0 mm 9 mps 747 mmHg 88%
    07:00 -4°C° 0 mm 9 mps 747 mmHg 88%
    08:00 -3°C° 0 mm 9 mps 748 mmHg 87%
    09:00 -3°C° 0 mm 9 mps 748 mmHg 87%
    10:00 -3°C° 0 mm 9 mps 748 mmHg 86%
    11:00 -1°C° 0.1 mm 9 mps 749 mmHg 85%
    12:00 -1°C° 0.1 mm 9 mps 749 mmHg 85%
    13:00 -1°C° 0.1 mm 9 mps 749 mmHg 84%
    14:00 -1°C° 0.1 mm 9 mps 749 mmHg 84%
    15:00 -1°C° 0.1 mm 8 mps 750 mmHg 84%
    16:00 -2°C° 0.1 mm 8 mps 750 mmHg 84%
    17:00 -1°C° 0.2 mm 8 mps 750 mmHg 84%
    18:00 -1°C° 0.2 mm 8 mps 751 mmHg 84%
    19:00 -1°C° 0.2 mm 8 mps 751 mmHg 83%
    20:00 -1°C° 0.2 mm 7 mps 751 mmHg 84%
    21:00 -2°C° 0.2 mm 7 mps 752 mmHg 85%
    22:00 -2°C° 0.2 mm 7 mps 752 mmHg 85%
    23:00 -2°C° 0.2 mm 7 mps 752 mmHg 86%

    17 December, Sunday

    Time Temperature Precipitation Wind Pressure Humidity
    00:00 -1°C° 0.2 mm 7 mps 753 mmHg 86%
    01:00 -1°C° 0.2 mm 7 mps 753 mmHg 87%
    02:00 -1°C° 0.2 mm 6 mps 754 mmHg 87%
    03:00 -1°C° 0.2 mm 6 mps 754 mmHg 86%
    04:00 -1°C° 0.2 mm 6 mps 755 mmHg 86%
    05:00 -1°C° 0.1 mm 6 mps 756 mmHg 87%
    06:00 -2°C° 0.1 mm 6 mps 756 mmHg 87%
    07:00 -1°C° 0.1 mm 5 mps 757 mmHg 87%
    08:00 -1°C° 0 mm 5 mps 758 mmHg 86%
    09:00 -1°C° 0 mm 5 mps 758 mmHg 85%
    10:00 0°C° 0 mm 5 mps 759 mmHg 84%
    11:00 0°C° 0 mm 5 mps 760 mmHg 82%
    12:00 0°C° 0 mm 5 mps 760 mmHg 80%
    13:00 0°C° 0 mm 5 mps 760 mmHg 78%
    14:00 0°C° 0 mm 5 mps 761 mmHg 80%
    15:00 0°C° 0 mm 5 mps 761 mmHg 82%
    16:00 0°C° 0 mm 4 mps 762 mmHg 83%
    17:00 -1°C° 0 mm 4 mps 762 mmHg 83%
    18:00 -1°C° 0 mm 4 mps 763 mmHg 83%
    19:00 -1°C° 0 mm 4 mps 763 mmHg 82%
    20:00 -1°C° 0 mm 4 mps 764 mmHg 82%
    21:00 -1°C° 0 mm 4 mps 764 mmHg 83%
    22:00 -1°C° 0 mm 4 mps 764 mmHg 83%
    23:00 -2°C° 0 mm 4 mps 764 mmHg 83%
    Show more